When you browse on this site, cookies collect data to enhance your experience and personalize the content and advertising you see.
Visit our Privacy Policy to learn more. By continuing to use the site, you agree to this use of cookies and data.
  • In Italy
  • List of Countries
  • For 7 days
  • Water Temperature
  • Satellite Maps
  • Weather Map
  • Weather Widgets
  • user-avatar
    Login

    Hourly Weather Parakou

    Today, 19 April, Friday

    Time Temperature Precipitation Wind Pressure Humidity
    00:00 +33°C° 0 mm 3 mps 726 mmHg 48%
    01:00 +31°C° 0 mm 3 mps 726 mmHg 56%
    02:00 +30°C° 0 mm 3 mps 726 mmHg 64%
    03:00 +30°C° 0 mm 3 mps 726 mmHg 72%
    04:00 +29°C° 0 mm 3 mps 726 mmHg 73%
    05:00 +29°C° 0 mm 3 mps 726 mmHg 75%
    06:00 +28°C° 0 mm 3 mps 726 mmHg 76%
    07:00 +30°C° 0 mm 3 mps 727 mmHg 69%
    08:00 +33°C° 0 mm 3 mps 727 mmHg 61%
    09:00 +35°C° 0 mm 3 mps 728 mmHg 54%
    10:00 +37°C° 0 mm 3 mps 728 mmHg 45%
    11:00 +39°C° 0 mm 2 mps 728 mmHg 36%
    12:00 +41°C° 0 mm 2 mps 727 mmHg 27%
    13:00 +42°C° 0 mm 1 mps 727 mmHg 25%
    14:00 +43°C° 0 mm 1 mps 726 mmHg 22%
    15:00 +44°C° 0 mm 1 mps 725 mmHg 20%
    16:00 +42°C° 0 mm 1 mps 725 mmHg 23%
    17:00 +41°C° 0 mm 2 mps 725 mmHg 25%
    18:00 +39°C° 0 mm 2 mps 725 mmHg 28%
    19:00 +38°C° 0 mm 3 mps 725 mmHg 33%
    20:00 +36°C° 0 mm 3 mps 726 mmHg 38%
    21:00 +35°C° 0 mm 3 mps 726 mmHg 42%
    22:00 +35°C° 0 mm 3 mps 726 mmHg 44%
    23:00 +34°C° 0 mm 3 mps 726 mmHg 45%

    Tomorrow, 20 April, Saturday

    Time Temperature Precipitation Wind Pressure Humidity
    00:00 +32°C° 0 mm 2 mps 726 mmHg 46%
    01:00 +33°C° 0 mm 3 mps 726 mmHg 52%
    02:00 +31°C° 0 mm 3 mps 726 mmHg 59%
    03:00 +30°C° 0 mm 4 mps 725 mmHg 65%
    04:00 +29°C° 0 mm 3 mps 726 mmHg 66%
    05:00 +29°C° 0 mm 3 mps 726 mmHg 67%
    06:00 +29°C° 0 mm 3 mps 726 mmHg 68%
    07:00 +30°C° 0 mm 3 mps 727 mmHg 61%
    08:00 +33°C° 0 mm 3 mps 727 mmHg 55%
    09:00 +35°C° 0 mm 3 mps 728 mmHg 49%
    10:00 +37°C° 0 mm 3 mps 727 mmHg 41%
    11:00 +39°C° 0 mm 2 mps 727 mmHg 34%
    12:00 +42°C° 0 mm 2 mps 727 mmHg 27%
    13:00 +42°C° 0 mm 1 mps 726 mmHg 24%
    14:00 +43°C° 0 mm 1 mps 725 mmHg 22%
    15:00 +40°C° 0 mm 0 mps 724 mmHg 20%
    16:00 +42°C° 0 mm 1 mps 724 mmHg 22%
    17:00 +40°C° 0 mm 1 mps 724 mmHg 24%
    18:00 +39°C° 0 mm 1 mps 724 mmHg 26%
    19:00 +38°C° 0 mm 2 mps 725 mmHg 31%
    20:00 +37°C° 0 mm 2 mps 726 mmHg 35%
    21:00 +36°C° 0 mm 2 mps 726 mmHg 39%
    22:00 +34°C° 0.1 mm 3 mps 726 mmHg 47%
    23:00 +33°C° 0.1 mm 4 mps 726 mmHg 55%

    Day after tomorrow, 21 April, Sunday

    Time Temperature Precipitation Wind Pressure Humidity
    00:00 +32°C° 0.1 mm 5 mps 726 mmHg 63%
    01:00 +30°C° 0 mm 5 mps 726 mmHg 65%
    02:00 +30°C° 0 mm 4 mps 726 mmHg 68%
    03:00 +29°C° 0 mm 4 mps 725 mmHg 70%
    04:00 +29°C° 0 mm 3 mps 725 mmHg 71%
    05:00 +28°C° 0 mm 3 mps 725 mmHg 72%
    06:00 +28°C° 0 mm 3 mps 726 mmHg 73%
    07:00 +30°C° 0 mm 3 mps 726 mmHg 65%
    08:00 +33°C° 0 mm 3 mps 727 mmHg 58%
    09:00 +35°C° 0 mm 3 mps 727 mmHg 50%
    10:00 +37°C° 0 mm 3 mps 727 mmHg 43%
    11:00 +39°C° 0 mm 3 mps 726 mmHg 36%
    12:00 +41°C° 0 mm 2 mps 726 mmHg 28%
    13:00 +43°C° 0 mm 2 mps 725 mmHg 25%
    14:00 +44°C° 0 mm 1 mps 724 mmHg 21%
    15:00 +43°C° 0 mm 0 mps 723 mmHg 18%
    16:00 +44°C° 0 mm 1 mps 723 mmHg 19%
    17:00 +42°C° 0 mm 1 mps 723 mmHg 21%
    18:00 +40°C° 0 mm 2 mps 723 mmHg 23%
    19:00 +39°C° 0 mm 2 mps 724 mmHg 26%
    20:00 +38°C° 0 mm 2 mps 724 mmHg 29%
    21:00 +37°C° 0 mm 3 mps 725 mmHg 32%
    22:00 +36°C° 0 mm 3 mps 725 mmHg 38%
    23:00 +35°C° 0 mm 4 mps 725 mmHg 44%

    22 April, Monday

    Time Temperature Precipitation Wind Pressure Humidity
    00:00 +34°C° 0 mm 4 mps 725 mmHg 51%
    01:00 +33°C° 0 mm 4 mps 724 mmHg 56%
    02:00 +32°C° 0 mm 4 mps 724 mmHg 61%
    03:00 +30°C° 0 mm 3 mps 724 mmHg 66%
    04:00 +30°C° 0 mm 3 mps 724 mmHg 68%
    05:00 +30°C° 0 mm 3 mps 724 mmHg 70%
    06:00 +29°C° 0 mm 3 mps 725 mmHg 72%
    07:00 +31°C° 0 mm 3 mps 725 mmHg 64%
    08:00 +34°C° 0 mm 3 mps 726 mmHg 57%
    09:00 +36°C° 0 mm 3 mps 727 mmHg 49%
    10:00 +38°C° 0 mm 3 mps 726 mmHg 43%
    11:00 +39°C° 0 mm 3 mps 726 mmHg 38%
    12:00 +42°C° 0 mm 3 mps 725 mmHg 32%
    13:00 +42°C° 0 mm 3 mps 724 mmHg 32%
    14:00 +40°C° 0 mm 2 mps 724 mmHg 33%
    15:00 +40°C° 0 mm 2 mps 723 mmHg 33%
    16:00 +39°C° 0 mm 2 mps 723 mmHg 34%
    17:00 +37°C° 0 mm 1 mps 723 mmHg 35%
    18:00 +37°C° 0 mm 1 mps 723 mmHg 36%
    19:00 +37°C° 0 mm 2 mps 724 mmHg 40%
    20:00 +36°C° 0 mm 2 mps 724 mmHg 43%
    21:00 +35°C° 0 mm 3 mps 724 mmHg 47%
    22:00 +33°C° 2.4 mm 3 mps 724 mmHg 56%
    23:00 +31°C° 2.4 mm 3 mps 725 mmHg 66%

    23 April, Tuesday

    Time Temperature Precipitation Wind Pressure Humidity
    00:00 +29°C° 2.4 mm 4 mps 725 mmHg 75%
    01:00 +29°C° 0.1 mm 3 mps 724 mmHg 76%
    02:00 +29°C° 0.1 mm 3 mps 724 mmHg 78%
    03:00 +28°C° 0.1 mm 3 mps 724 mmHg 79%
    04:00 +28°C° 0 mm 3 mps 724 mmHg 80%
    05:00 +28°C° 0 mm 3 mps 724 mmHg 81%
    06:00 +28°C° 0 mm 2 mps 725 mmHg 82%
    07:00 +29°C° 0 mm 2 mps 726 mmHg 74%
    08:00 +31°C° 0 mm 2 mps 726 mmHg 67%
    09:00 +32°C° 0 mm 2 mps 727 mmHg 60%
    10:00 +35°C° 0 mm 3 mps 726 mmHg 54%
    11:00 +37°C° 0 mm 3 mps 726 mmHg 48%
    12:00 +38°C° 0 mm 3 mps 725 mmHg 41%
    13:00 +39°C° 0 mm 3 mps 725 mmHg 38%
    14:00 +40°C° 0 mm 2 mps 724 mmHg 35%
    15:00 +41°C° 0 mm 2 mps 723 mmHg 32%
    16:00 +40°C° 0 mm 2 mps 724 mmHg 34%
    17:00 +39°C° 0 mm 2 mps 724 mmHg 37%
    18:00 +37°C° 0 mm 2 mps 724 mmHg 39%
    19:00 +36°C° 0 mm 3 mps 724 mmHg 44%
    20:00 +35°C° 0 mm 4 mps 725 mmHg 49%
    21:00 +34°C° 0 mm 6 mps 725 mmHg 54%
    22:00 +33°C° 0.2 mm 5 mps 725 mmHg 59%
    23:00 +32°C° 0.2 mm 4 mps 725 mmHg 64%

    24 April, Wednesday

    Time Temperature Precipitation Wind Pressure Humidity
    00:00 +30°C° 0.2 mm 3 mps 726 mmHg 69%
    01:00 +30°C° 0.3 mm 3 mps 725 mmHg 71%
    02:00 +30°C° 0.3 mm 3 mps 725 mmHg 73%
    03:00 +29°C° 0.3 mm 3 mps 724 mmHg 75%
    04:00 +29°C° 0 mm 2 mps 725 mmHg 76%
    05:00 +29°C° 0 mm 2 mps 725 mmHg 77%
    06:00 +29°C° 0 mm 2 mps 726 mmHg 78%
    07:00 +29°C° 4 mm 2 mps 726 mmHg 77%
    08:00 +30°C° 4 mm 2 mps 727 mmHg 75%
    09:00 +30°C° 4 mm 2 mps 727 mmHg 74%
    10:00 +31°C° 0 mm 2 mps 727 mmHg 69%
    11:00 +32°C° 0 mm 2 mps 727 mmHg 65%
    12:00 +32°C° 0 mm 2 mps 726 mmHg 60%
    13:00 +33°C° 0 mm 1 mps 726 mmHg 56%
    14:00 +34°C° 0 mm 1 mps 725 mmHg 51%
    15:00 +35°C° 0 mm 1 mps 724 mmHg 47%
    16:00 +34°C° 0 mm 1 mps 725 mmHg 49%
    17:00 +31°C° 0 mm 0 mps 725 mmHg 51%
    18:00 +30°C° 0 mm 0 mps 725 mmHg 53%
    19:00 +30°C° 0 mm 0 mps 726 mmHg 54%
    20:00 +30°C° 0 mm 0 mps 726 mmHg 56%
    21:00 +31°C° 0 mm 1 mps 727 mmHg 57%
    22:00 +31°C° 0 mm 1 mps 726 mmHg 58%
    23:00 +31°C° 0 mm 1 mps 726 mmHg 60%
    Show more